Probability
0 0 0 0 0 0 0 0 0 0 0 0 0 0 0 0 0 0 0 0 0 0 0 0 0 0 0 0 0 0 0 0 0 0 0 0 0 0 0 0 0 0 0 0 0 0 0 0 0
0 0 0 0 0 0 0 0 0 0 0 0 0 0 0 0 0 0 0 0 0 0 0 0 0 0 0 0 0 0 0 0 0 0 0 0 0 0 0 0 0 0 0 0 0 0 0 0 0
0 0 0 0 0 0 0 0 0 0 0 0 0 0 0 0 0 0 0 0 0 0 0 0 0 0 0 0 0 0 0 0 0 0 0 0 0 0 0 0 0 0 0 0 0 0 0 0 0
0 0 0 0 0 0 0 0 0 0 0 0 0 0 0 0 0 0 0 0 0 0 0 0 0 0 0 0 0 0 0 0 0 0 0 0 0 0 0 0 0 0 0 0 0 0 0 0 0
0 0 0 0 0 0 0 0 0 0 0 0 0 0 0 0 0 0 0 0 0 0 0 0 0 0 0 0 0 0 0 0 0 0 0 0 0 0 0 0 0 0 0 0 0 0 0 0 0
0 0 0 0 0 0 0 0 0 0 0 0 0 0 0 0 0 0 0 0 0 0 0 0 0 0 0 0 0 0 0 0 0 0 0 0 0 0 0 0 0 0 0 0 0 0 0 0 0
0 0 0 0 0 0 0 0 0 0 0 0 0 0 0 0 0 0 0 0 0 0 0 0 0 0 0 0 0 0 0 0 0 0 0 0 0 0 0 0 0 0 0 0 0 0 0 0 0
0 0 0 0 0 0 0 0 0 0 0 0 0 0 0 0 0 0 0 0 0 0 0 0 0 0 0 0 0 0 0 0 0 0 0 0 0 0 0 0 0 0 0 0 0 0 0 0 0
0 0 0 0 0 0 0 0 0 0 0 0 0 0 0 0 0 0 0 0 0 0 0 0 0 0 0 0 0 0 0 0 0 0 0 0 0 0 0 0 0 0 0 0 0 0 0 0 0
0 0 0 0 0 0 0 0 0 0 0 0 0 0 0 0 0 0 0 0 0 0 0 0 0 0 0 0 0 0 0 0 0 0 0 0 0 0 0 0 0 0 0 0 0 0 0 0 0
0 0 0 0 0 0 0 0 0 0 0 0 0 0 0 0 0 0 0 0 0 0 0 0 0 0 0 0 0 0 0 0 0 0 0 0 0 0 0 0 0 0 0 0 0 0 0 0 0
0 0 0 0 0 0 0 0 0 0 0 0 0 0 0 0 0 0 0 0 0 0 0 0 0 0 0 0 0 0 0 0 0 0 0 0 0 0 0 0 0 0 0 0 0 0 0 0 0
0 0 0 0 0 0 0 0 0 0 0 0 0 0 0 0 0 0 0 0 0 0 0 0 0 0 0 0 0 0 0 0 0 0 0 0 0 0 0 0 0 0 0 0 0 0 0 0 0
0 0 0 0 0 0 0 0 0 0 0 0 0 0 0 0 0 0 0 0 0 0 0 0 0 0 0 0 0 0 0 0 0 0 0 0 0 0 0 0 0 0 0 0 0 0 0 0 0
0 0 0 0 0 0 0 0 0 0 0 0 0 0 0 0 0 0 0 0 0 0 0 0 0 0 0 0 0 0 0 0 0 0 0 0 0 0 0 0 0 0 0 0 0 0 0 0 0
0 0 0 0 0 0 0 0 0 0 0 0 0 0 0 0 0 0 0 0 0 0 0 0 0 0 0 0 0 0 0 0 0 0 0 0 0 0 0 0 0 0 0 0 0 0 0 0 0
0 0 0 0 0 0 0 0 0 0 0 0 0 0 0 0 0 0 0 0 0 0 0 0 0 0 0 0 0 0 0 0 0 0 0 0 0 0 0 0 0 0 0 0 0 0 0 0 0
0 0 0 0 0 0 0 0 0 0 0 0 0 0 0 0 0 0 0 0 0 0 0 0 0 0 0 0 0 0 0 0 0 0 0 0 0 0 0 0 0 0 0 0 0 0 0 0 0
0 0 0 0 0 0 0 0 0 0 0 0 0 0 0 0 0 0 0 0 0 0 0 0 0 0 0 0 0 0 0 0 0 0 0 0 0 0 0 0 0 0 0 0 0 0 0 0 0
0 0 0 0 0 0 0 0 0 0 0 0 0 0 0 0 0 0 0 0 0 0 0 0 0 0 0 0 0 0 0 0 0 0 0 0 0 0 0 0 0 0 0 0 0 0 0 0 0
0 0 0 0 0 0 0 0 0 0 0 0 0 0 0 0 0 0 0 0 0 0 0 0 0 0 0 0 0 0 0 0 0 0 0 0 0 0 0 0 0 0 0 0 0 0 0 0 0
0 0 0 0 0 0 0 0 0 0 0 0 0 0 0 0 0 0 0 0 0 0 0 0 0 0 0 0 0 0 0 0 0 0 0 0 0 0 0 0 0 0 0 0 0 0 0 0 0
0 0 0 0 0 0 0 0 0 0 0 0 0 0 0 0 0 0 0 0 0 0 0 0 0 0 0 0 0 0 0 0 0 0 0 0 0 0 0 0 0 0 0 0 0 0 0 0 0
0 0 0 0 0 0 0 0 0 0 0 0 0 0 0 0 0 0 0 0 0 0 0 0 0 0 0 0 0 0 0 0 0 0 0 0 0 0 0 0 0 0 0 0 0 0 0 0 0
0 0 0 0 0 0 0 0 0 0 0 0 0 0 0 0 0 0 0 0 0 0 0 0 0 0 0 0 0 0 0 0 0 0 0 0 0 0 0 0 0 0 0 0 0 0 0 0 0
0 0 0 0 0 0 0 0 0 0 0 0 0 0 0 0 0 0 0 0 0 0 0 0 0 0 0 0 0 0 0 0 0 0 0 0 0 0 0 0 0 0 0 0 0 0 0 0 0
0 0 0 0 0 0 0 0 0 0 0 0 0 0 0 0 0 0 0 0 0 0 0 0 0 0 0 0 0 0 0 0 0 0 0 0 0 0 0 0 0 0 0 0 0 0 0 0 0
0 0 0 0 0 0 0 0 0 0 0 0 0 0 0 0 0 0 0 0 0 0 0 0 0 0 0 0 0 0 0 0 0 0 0 0 0 0 0 0 0 0 0 0 0 0 0 0 0
0 0 0 0 0 0 0 0 0 0 0 0 0 0 0 0 0 0 0 0 0 0 0 0 0 0 0 0 0 0 0 0 0 0 0 0 0 0 0 0 0 0 0 0 0 0 0 0 0
0 0 0 0 0 0 0 0 0 0 0 0 0 0 0 0 0 0 0 0 0 0 0 0 0 0 0 0 0 0 0 0 0 0 0 0 0 0 0 0 0 0 0 0 0 0 0 0 0
Wind_Speed
3 3 3 5 7 6 1 2 4 3 3 2 2 3 7 7 7 4 2 4 6 5 3 6 10 9 9 8 8 9 9 10 11 12 13 14 15 16 17 18 18 19 20 21 21 22 23 23 24
1 2 5 6 6 1 4 3 5 4 5 5 3 2 3 3 1 4 4 5 6 6 5 3 11 10 9 8 8 8 9 9 10 12 13 13 14 15 16 17 18 18 19 19 20 21 22 22 23
2 5 6 6 4 4 3 3 5 3 4 3 3 1 2 3 4 6 5 8 6 5 4 4 12 10 9 8 8 7 8 9 10 11 12 12 13 15 15 16 16 17 18 18 19 20 21 22 22
3 6 6 5 1 3 2 2 5 7 3 2 4 2 2 2 6 6 6 7 7 5 3 4 12 10 9 8 7 7 7 8 9 11 11 12 13 14 14 15 15 16 16 17 18 19 20 21 21
5 5 5 2 3 2 3 2 8 7 6 4 5 4 3 1 4 7 9 8 8 6 3 2 11 10 9 8 7 7 7 8 9 10 11 11 12 13 13 14 14 15 15 16 17 18 19 19 20
5 5 3 2 4 3 2 4 6 5 4 4 6 4 4 3 7 8 9 7 7 6 4 1 10 11 9 8 7 7 7 8 8 9 11 11 11 12 12 13 13 14 14 15 16 17 18 19 20
5 4 3 4 3 4 4 6 5 6 5 7 8 5 3 4 7 9 8 7 6 6 5 3 4 5 7 7 7 7 7 7 8 9 10 10 11 11 12 12 12 13 13 14 15 16 17 18 19
5 6 2 3 4 7 5 7 4 8 6 3 8 7 5 7 8 7 6 5 5 5 5 5 4 5 4 3 6 7 7 7 7 8 9 10 11 11 11 10 11 12 13 14 15 16 17 18 19
4 5 3 6 8 6 4 5 3 3 5 3 4 3 0 11 12 9 5 4 5 6 4 5 5 5 5 3 4 5 6 7 7 6 9 9 4 4 6 8 11 11 12 13 15 16 17 17 17
4 3 7 4 5 3 5 6 7 4 3 5 4 2 5 12 14 14 12 11 11 9 7 5 6 6 5 4 4 3 3 4 5 4 5 4 3 2 5 8 10 11 12 13 14 15 15 12 6
1 4 3 1 1 2 5 5 6 7 10 12 10 9 10 13 15 16 15 13 12 9 8 8 7 6 6 4 4 3 2 3 4 5 5 4 3 2 3 2 4 5 7 5 8 8 5 5 5
1 1 1 2 1 2 5 5 5 9 12 6 8 11 12 19 20 20 19 14 10 9 10 9 8 7 6 5 4 4 3 3 3 4 5 4 2 2 1 1 1 1 2 2 3 3 4 5 5
1 1 2 2 0 1 2 4 5 10 10 2 6 11 15 19 19 17 13 11 10 12 12 10 9 9 7 6 5 5 4 4 4 4 5 5 4 3 2 1 0 1 1 1 2 3 4 4 5
1 1 2 1 0 1 3 3 4 13 5 6 8 12 15 19 19 14 13 15 16 15 14 11 11 10 8 7 6 5 5 5 4 4 5 6 4 4 3 2 1 1 1 1 1 3 3 3 4
1 2 4 3 2 1 1 8 11 9 5 7 9 10 13 15 15 19 19 18 17 14 13 13 13 11 10 9 8 6 5 5 5 5 6 6 5 5 4 3 2 2 2 2 2 3 3 4 4
1 3 5 4 3 1 2 12 11 4 8 11 10 10 11 14 14 16 16 15 13 12 13 14 13 12 11 9 8 5 5 6 5 5 5 7 6 6 4 3 3 3 2 2 2 3 3 4 4
3 3 4 6 4 3 5 13 10 2 7 11 10 10 12 12 14 15 15 15 14 15 14 15 13 14 13 10 7 6 5 6 5 5 5 6 7 7 5 4 4 3 3 3 4 2 3 4 5
4 4 5 7 3 5 7 17 18 6 8 12 11 10 12 15 20 15 14 13 13 13 14 15 15 13 11 7 5 4 4 5 5 5 6 7 6 7 6 4 5 4 3 3 3 4 4 4 5
2 4 7 8 4 6 11 19 24 14 10 14 15 13 14 18 14 9 13 13 12 13 15 16 16 13 11 6 6 5 5 5 5 6 8 8 8 8 7 5 5 4 4 5 4 3 4 4 3
4 5 7 8 2 5 8 17 20 13 12 15 15 15 16 14 9 10 12 14 17 17 18 17 18 16 15 11 7 4 4 4 5 5 7 9 9 8 7 7 5 5 4 5 5 4 3 3 2
4 6 6 6 4 3 7 14 10 7 4 6 9 10 10 14 15 12 13 16 17 19 21 19 20 18 16 12 6 3 2 2 4 6 7 8 9 9 8 8 6 6 6 5 6 5 5 4 3
7 6 5 3 3 6 3 10 13 7 8 8 9 10 12 13 13 12 13 15 19 21 17 18 18 18 16 15 13 12 11 10 10 7 7 7 9 9 9 8 8 7 6 6 6 6 5 5 4
6 0 0 1 2 5 2 5 15 6 8 9 9 10 12 12 12 14 15 17 17 16 15 16 16 17 17 17 18 16 14 9 5 5 7 8 7 8 8 8 8 7 6 7 7 6 6 5 5
3 3 3 4 3 4 4 5 13 7 8 8 7 7 9 9 10 12 11 10 11 11 13 14 16 18 17 19 18 19 18 12 9 9 9 8 6 6 8 9 8 8 7 7 8 7 7 7 7
2 3 5 6 3 6 2 4 15 13 8 8 10 10 8 7 7 8 9 11 12 13 15 15 17 19 18 19 20 20 19 16 16 14 12 10 7 7 10 9 8 7 8 8 7 7 8 8 8
3 5 4 4 5 7 3 9 14 11 8 8 9 10 10 9 8 9 10 10 11 12 14 15 19 19 18 20 20 18 16 13 12 13 10 11 10 9 9 10 9 9 8 8 7 7 8 7 8
4 3 3 3 3 5 8 10 16 9 6 5 7 8 10 11 10 9 8 8 9 11 14 17 18 18 18 20 18 17 17 15 14 12 11 9 8 8 10 10 9 9 9 9 8 7 8 7 8
2 5 4 2 3 6 8 7 8 10 9 9 8 9 10 9 9 9 8 8 8 9 10 12 16 18 17 16 17 15 16 16 14 11 13 12 11 10 10 10 10 9 9 9 8 8 8 8 9
4 3 4 3 3 4 6 10 9 9 9 10 11 10 10 11 11 10 8 6 6 7 8 11 13 14 14 16 16 16 15 15 14 13 14 13 11 12 11 11 10 10 9 9 8 9 8 9 10
6 7 8 4 6 6 5 14 11 10 10 9 11 11 10 11 10 9 8 7 6 6 7 9 11 13 14 13 14 15 14 14 15 16 15 13 13 12 12 11 10 10 10 9 9 10 10 9 11
Wind_Direction
70 64 62 56 55 52 159 211 169 160 169 121 109 141 163 170 172 193 131 167 138 133 114 127 132 121 109 95 82 73 64 56 51 47 44 42 40 38 34 32 31 29 29 28 27 26 25 25 23
91 54 53 58 82 53 271 203 187 197 155 133 106 109 131 182 158 130 160 188 152 132 108 118 136 127 117 104 92 81 71 62 55 51 46 43 41 39 34 32 31 29 28 27 26 26 24 24 22
88 51 75 72 104 186 243 199 181 111 136 139 120 86 198 200 183 181 192 166 142 129 118 164 139 133 123 112 100 87 77 68 60 55 48 44 42 40 33 32 30 29 28 27 26 25 23 22 20
74 46 53 72 179 215 242 210 152 132 161 151 148 192 247 224 179 183 154 150 137 138 125 179 145 140 131 122 110 96 83 73 65 59 51 45 43 41 33 32 31 29 28 26 26 24 23 21 18
59 72 58 36 263 258 246 210 157 161 185 179 172 196 235 178 141 141 146 151 147 148 137 193 153 147 140 131 119 106 92 81 71 65 56 48 44 42 34 31 31 29 27 26 25 23 22 20 18
59 68 84 263 265 274 238 173 158 174 173 171 181 197 228 151 148 158 156 160 157 149 128 102 161 152 147 140 131 117 104 92 79 72 64 53 46 41 35 29 31 29 27 25 24 23 22 20 17
106 109 181 224 249 269 217 167 179 176 190 203 183 189 222 188 186 161 157 156 158 148 130 100 83 124 145 144 141 129 115 102 89 81 73 59 50 42 36 28 29 29 27 25 24 22 21 20 16
115 107 134 210 223 251 197 170 194 170 203 173 164 187 228 196 159 141 142 153 163 158 149 139 120 110 99 97 147 137 125 112 98 89 83 69 57 45 36 25 26 28 27 23 23 22 21 20 15
87 87 220 221 207 240 170 175 182 153 134 181 214 221 143 135 135 137 146 172 185 182 176 160 152 147 143 144 138 123 121 116 100 86 91 86 75 60 32 18 28 27 27 22 22 21 20 21 12
86 168 233 218 198 215 180 190 176 149 185 225 239 198 118 141 159 171 180 187 191 191 191 182 172 167 164 153 120 117 109 109 116 112 106 107 97 74 63 31 32 29 29 23 21 21 20 18 7
98 209 251 286 250 194 176 198 179 174 225 216 208 186 154 164 178 189 194 192 193 189 189 186 183 175 168 156 151 146 136 134 138 142 139 129 110 78 69 48 29 21 29 23 16 15 10 3 354
111 267 308 307 269 180 190 181 196 212 226 212 198 163 168 178 189 196 198 194 186 186 195 187 183 179 179 169 164 162 160 159 163 165 157 147 140 131 121 96 43 30 18 12 10 2 350 344 334
181 286 332 333 65 194 172 202 235 244 236 203 147 159 181 190 198 204 201 191 188 195 195 190 185 185 180 174 178 172 175 175 173 170 172 166 160 161 160 159 113 10 8 6 348 339 328 321 311
151 305 302 310 339 181 209 254 247 257 222 187 178 188 195 199 201 198 198 197 198 200 197 191 190 190 182 181 184 180 180 177 173 178 183 179 171 170 171 179 201 252 267 280 292 290 292 289 285
111 335 307 242 208 225 336 286 237 240 155 205 212 209 208 211 205 205 204 203 201 198 195 192 194 190 188 189 190 185 182 176 181 186 187 185 181 178 177 185 211 230 236 257 269 278 269 270 274
37 5 313 270 191 159 168 270 266 223 189 226 226 221 221 221 216 215 209 206 200 193 194 196 196 191 195 193 190 184 182 182 187 185 186 191 190 185 180 190 214 222 221 233 252 255 261 268 272
19 321 287 296 196 170 207 257 273 161 202 239 238 226 226 230 229 221 212 206 199 197 195 196 198 192 195 193 187 185 183 190 189 185 189 195 194 190 184 196 213 215 217 228 251 250 238 263 274
272 267 271 272 230 188 232 256 267 224 213 240 245 236 229 231 232 219 210 206 200 198 198 199 200 195 187 180 173 180 196 202 195 193 196 194 195 192 188 199 213 211 216 230 234 251 251 247 264
241 247 266 265 225 200 244 261 269 262 226 242 243 238 235 238 238 209 202 200 197 198 200 201 201 194 181 174 178 183 204 201 201 203 200 196 195 192 190 201 204 206 213 224 228 239 264 263 255
230 265 274 285 218 214 277 276 270 260 235 234 238 236 235 239 237 211 200 198 202 203 204 204 204 197 194 193 177 174 174 189 198 198 199 198 195 194 197 198 203 207 214 226 229 218 241 260 264
239 228 249 272 318 274 308 296 288 291 252 253 239 236 233 230 234 220 206 206 205 208 207 206 205 201 197 186 163 145 135 147 177 198 203 201 196 196 198 196 199 205 206 219 225 216 220 245 252
262 243 230 273 320 300 354 302 294 292 300 269 250 236 237 234 231 223 212 210 211 214 207 207 203 201 195 185 187 187 193 201 200 192 192 192 194 196 198 198 200 205 207 217 226 222 213 222 249
228 344 215 292 245 298 270 245 284 313 290 275 258 240 237 232 224 225 219 217 217 212 204 205 202 203 197 195 198 201 209 209 179 175 185 193 197 199 199 200 200 206 210 216 222 227 222 218 232
134 65 54 53 71 288 239 198 281 266 247 280 289 267 249 242 231 233 229 219 217 204 201 200 202 206 200 199 203 206 209 198 184 189 193 197 198 202 204 205 204 207 210 216 221 223 227 229 233
96 71 350 338 342 261 200 216 255 258 247 251 275 289 291 274 249 241 231 220 217 206 203 200 202 208 203 202 207 210 211 203 202 198 199 195 197 203 207 205 204 207 213 218 220 223 229 230 233
180 154 177 257 268 290 272 239 258 268 275 261 265 277 289 282 263 250 239 227 222 213 204 201 205 210 204 205 210 211 209 206 209 204 197 198 201 203 196 200 205 209 212 220 220 226 232 233 235
158 201 176 164 278 279 276 286 296 295 308 297 287 288 284 282 277 264 255 235 224 215 208 205 208 211 208 208 208 209 208 209 209 202 199 199 199 196 196 200 206 211 215 219 220 230 234 235 240
168 156 111 144 270 282 288 276 262 297 308 320 319 306 296 294 288 279 266 250 235 223 213 204 208 213 211 207 208 210 209 210 207 199 201 201 199 195 191 199 206 212 217 220 222 232 236 238 244
147 163 162 167 194 220 277 269 238 247 271 291 295 294 292 292 289 283 275 261 242 224 209 207 210 213 211 209 209 211 209 207 204 205 205 202 198 196 199 202 206 213 218 220 224 233 235 241 250
180 191 162 184 239 206 240 268 259 257 273 275 282 290 291 286 284 283 282 277 258 237 219 214 213 214 215 209 208 212 209 203 206 210 207 200 199 198 200 201 207 214 219 219 223 236 241 241 249